Hartsville, SC

7:45 AM EDT on September 25, 2016 (GMT -0400)
Hartsville Regional

Weather History for KHVS - February, 2013

Change the Weather History Date:

Tuesday, February 26, 2013

  Actual Average (KFLO) Record (KFLO)
Temperature  
Mean Temperature 52 °F 51 °F  
Max Temperature 68 °F 62 °F 83 °F (1996)
Min Temperature 37 °F 40 °F 13 °F (1967)
Degree Days  
Heating Degree Days 12 14  
Month to date heating degree days 436  
Since 1 July heating degree days 2038  
Cooling Degree Days 0 0  
Month to date cooling degree days 0  
Year to date cooling degree days 2  
Growing Degree Days 2 (Base 50)    
Moisture  
Dew Point 48 °F    
Average Humidity 96    
Maximum Humidity 100    
Minimum Humidity 61    
Precipitation  
Precipitation 0.00 in 0.11 in 1.49 in (2004)
Month to date precipitation 2.71  
Year to date precipitation 5.94  
Sea Level Pressure  
Sea Level Pressure 29.76 in    
Wind  
Wind Speed 9 mph (ENE)    
Max Wind Speed 16 mph    
Max Gust Speed 22 mph    
Visibility 6 miles    
Events      
T = Trace of Precipitation, MM = Missing Value Source: NWS Daily Summary

Daily Weather History Graph

Daily Weather History Graph

Search for Another Location

Airport or City:

Trip Planner

Search our weather history database for the weather conditions in past years. The results will help you decide how hot, cold, wet, or windy it might be!

Date:

Astronomy

Feb. 26, 2013 Rise Set
Actual Time 6:52 AM EST 6:14 PM EST
Civil Twilight 6:27 AM EST 6:39 PM EST
Nautical Twilight 5:58 AM EST 7:08 PM EST
Astronomical Twilight 5:29 AM EST 7:37 PM EST
Moon 7:23 PM EST (2/26) 6:58 AM EST (2/26)
Length of Visible Light 12h 11m
Length of Day
11h 21m
Full, 99% of the Moon is Illuminated
Feb 26
Full
Mar 4
Last Quarter
Mar 11
New
Mar 19
First Quarter
Mar 27
Full

Hourly Weather History & Observations

Time (EST) Temp. Windchill Dew Point Humidity Pressure Visibility Wind Dir Wind Speed Gust Speed Precip Events Conditions
12:15 AM 42.8 °F 36.6 °F 30.2 °F 61% 30.04 in 10.0 mi ENE 11.5 mph 17.3 mph N/A   Overcast
12:35 AM 42.8 °F 37.5 °F 30.2 °F 61% 30.04 in 10.0 mi ENE 9.2 mph - N/A   Overcast
12:55 AM 41.0 °F 34.3 °F 32.0 °F 70% 30.03 in 10.0 mi ENE 11.5 mph 18.4 mph N/A   Overcast
1:15 AM 41.0 °F 34.7 °F 32.0 °F 70% 30.04 in 7.0 mi ENE 10.4 mph 16.1 mph N/A   Overcast
1:35 AM 39.2 °F 33.6 °F 33.8 °F 81% 30.03 in 7.0 mi NE 8.1 mph - N/A   Overcast
1:55 AM 39.2 °F 32.5 °F 33.8 °F 81% 30.03 in 7.0 mi ENE 10.4 mph - N/A   Overcast
2:15 AM 39.2 °F 31.6 °F 33.8 °F 81% 30.01 in 10.0 mi ENE 12.7 mph 17.3 mph N/A   Overcast
2:35 AM 39.2 °F 33.6 °F 33.8 °F 81% 29.99 in 10.0 mi NE 8.1 mph - N/A   Overcast
2:55 AM 37.4 °F 30.3 °F 35.6 °F 93% 29.97 in 5.0 mi ENE 10.4 mph - N/A   Overcast
3:15 AM 37.4 °F 30.3 °F 35.6 °F 93% 29.96 in 5.0 mi NE 10.4 mph - N/A   Overcast
3:35 AM 37.4 °F 30.8 °F 35.6 °F 93% 29.94 in 7.0 mi NE 9.2 mph - N/A   Overcast
3:55 AM 37.4 °F 30.8 °F 37.4 °F 100% 29.95 in 3.0 mi ENE 9.2 mph - N/A   Overcast
4:15 AM 37.4 °F 30.3 °F 37.4 °F 100% 29.94 in 4.0 mi ENE 10.4 mph 18.4 mph N/A   Overcast
4:35 AM 37.4 °F 29.3 °F 37.4 °F 100% 29.92 in 5.0 mi ENE 12.7 mph 18.4 mph N/A   Overcast
4:55 AM 37.4 °F 29.3 °F 37.4 °F 100% 29.91 in 5.0 mi ENE 12.7 mph - N/A   Overcast
5:15 AM 37.4 °F 28.2 °F 37.4 °F 100% 29.91 in 5.0 mi East 16.1 mph 21.9 mph N/A   Overcast
5:35 AM 39.2 °F 33.0 °F 39.2 °F 100% 29.91 in 5.0 mi ENE 9.2 mph 18.4 mph N/A   Overcast
5:55 AM 39.2 °F 33.6 °F 39.2 °F 100% 29.92 in 4.0 mi ENE 8.1 mph - N/A   Overcast
6:15 AM 39.2 °F 31.6 °F 39.2 °F 100% 29.90 in 3.0 mi NE 12.7 mph - N/A   Overcast
6:35 AM 39.2 °F 30.8 °F 39.2 °F 100% 29.88 in 5.0 mi NE 15.0 mph 19.6 mph N/A   Overcast
6:55 AM 39.2 °F 31.2 °F 39.2 °F 100% 29.87 in 4.0 mi ENE 13.8 mph - N/A   Overcast
7:15 AM 41.0 °F 33.9 °F 41.0 °F 100% 29.85 in 5.0 mi ENE 12.7 mph 18.4 mph N/A   Overcast
7:35 AM 41.0 °F 33.5 °F 41.0 °F 100% 29.85 in 3.0 mi ENE 13.8 mph 18.4 mph N/A   Overcast
7:55 AM 41.0 °F 33.9 °F 41.0 °F 100% 29.84 in 2.5 mi NE 12.7 mph - N/A   Overcast
8:15 AM 41.0 °F 33.1 °F 41.0 °F 100% 29.84 in 2.5 mi ENE 15.0 mph 21.9 mph N/A   Overcast
8:35 AM 42.8 °F 35.8 °F 42.8 °F 100% 29.84 in 3.0 mi ENE 13.8 mph - N/A   Overcast
8:55 AM 42.8 °F 35.8 °F 42.8 °F 100% 29.83 in 4.0 mi ENE 13.8 mph 18.4 mph N/A   Overcast
9:15 AM 42.8 °F 36.6 °F 42.8 °F 100% 29.81 in 2.0 mi ENE 11.5 mph - N/A   Overcast
9:35 AM 42.8 °F 37.5 °F 42.8 °F 100% 29.81 in 3.0 mi ENE 9.2 mph - N/A   Overcast
9:55 AM 44.6 °F 39.2 °F 44.6 °F 100% 29.80 in 3.0 mi East 10.4 mph - N/A   Overcast
10:15 AM 44.6 °F 39.7 °F 44.6 °F 100% 29.78 in 3.0 mi East 9.2 mph 16.1 mph N/A   Overcast
10:35 AM 46.4 °F 41.9 °F 46.4 °F 100% 29.77 in 5.0 mi East 9.2 mph - N/A   Overcast
10:55 AM 48.2 °F - 48.2 °F 100% 29.75 in 3.0 mi East 11.5 mph - N/A   Overcast
11:15 AM 50.0 °F - 50.0 °F 100% 29.73 in 4.0 mi ENE 12.7 mph - N/A   Overcast
11:35 AM 51.8 °F - 51.8 °F 100% 29.70 in 5.0 mi East 11.5 mph - N/A   Overcast
11:55 AM 51.8 °F - 51.8 °F 100% 29.69 in 4.0 mi East 10.4 mph - N/A   Overcast
12:15 PM 53.6 °F - 53.6 °F 100% 29.68 in 4.0 mi East 9.2 mph - N/A   Overcast
12:35 PM 53.6 °F - 53.6 °F 100% 29.66 in 1.2 mi East 9.2 mph - N/A   Overcast
12:55 PM 55.4 °F - 55.4 °F 100% 29.62 in 1.5 mi East 11.5 mph - N/A   Overcast
1:15 PM 55.4 °F - 55.4 °F 100% 29.61 in 2.5 mi East 11.5 mph - N/A   Overcast
1:35 PM 57.2 °F - 57.2 °F 100% 29.59 in 4.0 mi East 12.7 mph 16.1 mph N/A   Overcast
1:55 PM 59.0 °F - 59.0 °F 100% 29.59 in 5.0 mi East 5.8 mph - N/A   Overcast
2:15 PM 59.0 °F - 59.0 °F 100% 29.58 in 7.0 mi East 4.6 mph - N/A   Overcast
2:35 PM 59.0 °F - 59.0 °F 100% 29.60 in 2.5 mi South 3.5 mph - N/A   Overcast
2:55 PM 60.8 °F - 60.8 °F 100% 29.59 in 4.0 mi SE 3.5 mph - N/A   Overcast
3:15 PM 62.6 °F - 62.6 °F 100% 29.58 in 5.0 mi ESE 3.5 mph - N/A   Overcast
3:35 PM 62.6 °F - 62.6 °F 100% 29.56 in 5.0 mi ESE 3.5 mph - N/A   Mostly Cloudy
3:55 PM 64.4 °F - 64.4 °F 100% 29.55 in 10.0 mi SSE 3.5 mph - N/A   Scattered Clouds
4:15 PM 68.0 °F - 68.0 °F 100% 29.55 in 7.0 mi South 4.6 mph - N/A   Scattered Clouds
4:35 PM 68.0 °F - 68.0 °F 100% 29.56 in 7.0 mi SSW 5.8 mph - N/A   Mostly Cloudy
4:55 PM 68.0 °F - 68.0 °F 100% 29.56 in 10.0 mi Calm Calm - N/A   Overcast
5:15 PM 68.0 °F - 66.2 °F 94% 29.56 in 10.0 mi West 3.5 mph - N/A   Mostly Cloudy
5:35 PM 64.4 °F - 62.6 °F 94% 29.57 in 10.0 mi West 6.9 mph 16.1 mph N/A   Overcast
5:55 PM 62.6 °F - 60.8 °F 94% 29.57 in 10.0 mi West 5.8 mph - N/A   Overcast
6:15 PM 60.8 °F - 57.2 °F 88% 29.59 in 10.0 mi West 8.1 mph - N/A   Mostly Cloudy
6:35 PM 59.0 °F - 55.4 °F 88% 29.60 in 10.0 mi West 4.6 mph - N/A   Overcast
6:55 PM 57.2 °F - 55.4 °F 94% 29.62 in 10.0 mi Calm Calm - N/A   Mostly Cloudy
7:15 PM 55.4 °F - 53.6 °F 94% 29.63 in 10.0 mi Calm Calm - N/A   Mostly Cloudy
7:35 PM 55.4 °F - 53.6 °F 94% 29.64 in 10.0 mi West 4.6 mph - N/A   Scattered Clouds
7:55 PM 53.6 °F - 51.8 °F 94% 29.64 in 10.0 mi WNW 3.5 mph - N/A   Clear
8:15 PM 51.8 °F - 51.8 °F 100% 29.66 in 10.0 mi West 4.6 mph - N/A   Clear
8:35 PM 51.8 °F - 50.0 °F 94% 29.67 in 10.0 mi West 3.5 mph - N/A   Scattered Clouds
8:55 PM 50.0 °F - 50.0 °F 100% 29.68 in 10.0 mi West 4.6 mph - N/A   Scattered Clouds
9:15 PM 50.0 °F - 50.0 °F 100% 29.68 in 10.0 mi Calm Calm - N/A   Clear
9:35 PM 50.0 °F - 50.0 °F 100% 29.69 in 10.0 mi Calm Calm - N/A   Clear
9:55 PM 48.2 °F - 48.2 °F 100% 29.70 in 10.0 mi Calm Calm - N/A   Clear
10:15 PM 48.2 °F - 48.2 °F 100% 29.69 in 7.0 mi Calm Calm - N/A   Clear
10:35 PM 46.4 °F - 46.4 °F 100% 29.70 in 3.0 mi Calm Calm - N/A   Mostly Cloudy
10:55 PM 48.2 °F - 48.2 °F 100% 29.69 in 10.0 mi Calm Calm - N/A   Overcast
11:15 PM 48.2 °F - 48.2 °F 100% 29.71 in 7.0 mi WSW 4.6 mph - N/A   Overcast
11:55 PM 46.4 °F 43.5 °F 46.4 °F 100% 29.71 in 7.0 mi SW 5.8 mph - N/A   Overcast